Location: Brno
(49.2000°N, 16.6330°E)
Time: 22:02:27
(UTC+02:00)

Explorer 11/Cluster Stage 4 - Pass Details

Date: 28 July 2021
Orbit: 467 x 1257 km, 28.8° (Epoch: 17 September)

Event Time Altitude Azimuth Distance (km) Brightness Sun altitude
Rises 12:40:05 0° 226° (SW) 4,143 10.5 59.4°
Reaches altitude 10° 12:44:53 10° 203° (SSW) 3,081 10.2 59.5°
Maximum altitude 12:48:14 13° 177° (S) 2,733 10.1 59.6°
Drops below altitude 10° 12:51:25 10° 150° (SSE) 2,873 10.1 59.6°
Sets 12:55:34 0° 125° (SE) 3,650 10.3 59.7°
